Hourly Weather Roundup
Issued by NWS Central Illinois

Home | Current Version | Previous Version | Text Only | Print | Product List | Glossary On
Versions: 1 2 3 4 5 6 7 8 9 10 11 12 13 14 15 16 17 18 19 20 21 22 23 24 25 26 27 28 29 30 31 32 33 34 35 36 37 38 39 40 41 42 43 44 45 46 47 48 49 50
000
NZUS43 KILX 030310
HWRILX

AREA WEATHER ROUNDUP
NATIONAL WEATHER SERVICE, LINCOLN IL
900 PM CST MON MAR 02 2015


CITY           SKY/WX    TMP DP  RH WIND       PRES   REMARKS
BLOOMINGTON    CLOUDY    21  17  84 SE7       30.29F WCI  12
CHAMPAIGN      CLOUDY    21  16  81 E9        30.30F WCI  11
DECATUR        CLOUDY    22  17  81 E9        30.28F WCI  12
FLORA          CLOUDY    25  19  80 E3        30.32F
GALESBURG      CLOUDY    26  20  77 SE6       30.25S WCI  20
JACKSONVILLE   CLOUDY    28  20  71 E10       30.27F WCI  19
LACON          MOCLDY    25  18  76 SE8       30.29F WCI  16
LAWRENCEVILLE  CLOUDY    27  19  72 E5        30.34F WCI  22
LITCHFIELD     MOCLDY    27  15  62 SE6       30.29S WCI  20
$$


CITY           SKY/WX    TMP DP  RH WIND       PRES   REMARKS
LINCOLN        CLOUDY    25  19  80 SE5       30.32S WCI  19
MACOMB         CLOUDY    27  21  80 SE10      30.28S WCI  17
MATTOON        CLOUDY    24  16  71 E6        30.29F WCI  17
MT CARMEL AP   CLOUDY    30  21  69 E3        30.34F
OLNEY-NOBLE AP CLOUDY    28  19  69 E3        30.33F
PARIS          CLOUDY    22  17  83 E5        30.33F WCI  15
PEORIA         CLOUDY    28  18  66 SE7       30.28F WCI  21
PONTIAC        CLOUDY    22  18  87 E6        30.31F WCI  14
RANTOUL        CLOUDY    21  17  85 E6        30.31F WCI  14
ROBINSON       CLOUDY    26  22  85 CALM      30.34F
SPRINGFIELD    CLOUDY    28  18  66 SE9       30.29F WCI  19
TAYLORVILLE    CLOUDY    27  19  74 SE6       30.29F WCI  20
$$

...REGIONAL REPORTS...


CITY           SKY/WX    TMP DP  RH WIND       PRES   REMARKS
CHICAGO O`HARE CLOUDY    26  15  63 S9        30.31F WCI  17
KANKAKEE       CLOUDY    24  20  82 E7        30.34F WCI  16
MOLINE         CLOUDY    27  18  69 SE8       30.26F WCI  19
MOUNT VERNON   MOCLDY    28  16  59 E6        30.30F WCI  22
PITTSFIELD     CLOUDY    30  21  69 SE9       30.25F WCI  22
QUINCY         CLOUDY    29  19  66 SE9       30.24F WCI  20
ROCKFORD       CLOUDY    24  16  71 S9        30.31F WCI  14
$$


CITY           SKY/WX    TMP DP  RH WIND       PRES   REMARKS
BURLINGTON     MOCLDY    27  20  75 SE8       30.24S WCI  19
CEDAR RAPIDS   CLOUDY    24  18  77 SE7       30.22F WCI  16
DES MOINES     CLOUDY    30  17  58 SE10G21   30.14F WCI  21
KIRKSVILLE     CLOUDY    31  23  72 SE10      30.18F WCI  22
OTTUMWA        MOCLDY    26  17  68 SE13      30.17F WCI  15
ST LOUIS       CLOUDY    32  20  61 E9        30.27F WCI  24
$$


CITY           SKY/WX    TMP DP  RH WIND       PRES   REMARKS
TERRE HAUTE    CLOUDY    24  16  71 E7        30.34F WCI  16
EVANSVILLE     CLOUDY    32  20  61 NE7       30.33F WCI  26
INDIANAPOLIS   CLOUDY    26  14  60 E5        30.35F WCI  20
LAFAYETTE      CLOUDY    23  14  68 E8        30.36F WCI  14
MADISON        CLOUDY    25  13  60 S7        30.28F WCI  17
MILWAUKEE      CLOUDY    25  15  66 S6        30.31F WCI  18
$$





USA.gov is the U.S. government's official web portal to all federal, state and local government web resources and services.